Location: Madrid
(40.4167°N, 3.7036°W)
Time: 21:41:45
(UTC+00:00)

ISS - Pass Details

Date: 07 July 2025
Orbit: 413 x 417 km, 51.6° (Epoch: 13 July)

Event Time Altitude Azimuth Distance (km) Brightness Sun altitude
Rises 03:13:36 0° 312° (NW) 2,360 0.1 -15.2°
Reaches altitude 10° 03:15:52 10° 323° (NW) 1,495 -0.8 -14.9°
Maximum altitude 03:18:52 30° 27° (NNE) 781 -1.6 -14.5°
Drops below altitude 10° 03:21:52 10° 90° (E) 1,491 -0.4 -14.1°
Sets 03:24:08 0° 102° (ESE) 2,353 0.5 -13.8°
